Location: Follega
(52.8850°N, 5.7362°E)
Time: 04:24:19
(UTC+00:00)

EXPRESS MD2 - Visible Passes

Search period start: 23 September 2020 00:00
Search period end: 03 October 2020 00:00
Orbit: 260 x 4013 km, 49.9° (Epoch: 22 September)

Date Brightness Start Highest point End Pass type
(mag) Time Alt. Az. Time Alt. Az. Time Alt. Az.
23 Sep 8.0 02:05:36 10° WNW 02:16:25 19° W 02:16:25 19° W visible
23 Sep 7.5 18:55:36 10° WSW 19:16:45 81° S 19:38:17 15° E visible
23 Sep 7.3 21:14:43 10° W 21:38:35 76° SSW 21:48:32 45° SE visible
23 Sep 7.3 23:35:09 10° WNW 23:57:34 49° SW 23:58:46 49° SW visible
24 Sep 8.1 01:58:45 10° WNW 02:09:01 18° W 02:09:01 18° W visible
24 Sep 7.5 18:48:40 10° WSW 19:09:38 82° S 19:30:57 16° E visible
24 Sep 7.3 21:07:43 10° W 21:31:26 75° SSW 21:41:12 46° SE visible
24 Sep 7.3 23:28:04 10° WNW 23:50:17 48° SW 23:51:27 48° SW visible
25 Sep 8.1 01:51:56 10° WNW 02:01:42 17° W 02:01:42 17° W visible
25 Sep 7.5 18:41:43 10° WSW 19:02:31 82° S 19:23:41 17° E visible
25 Sep 7.3 21:00:43 10° W 21:24:16 75° SSW 21:33:57 46° SE visible
25 Sep 7.4 23:20:59 10° WNW 23:42:59 47° SW 23:44:12 46° SW visible
26 Sep 8.2 01:45:09 10° WNW 01:54:27 17° W 01:54:27 17° W visible
26 Sep 7.5 18:34:46 10° WSW 18:55:23 82° S 19:16:30 17° E visible
26 Sep 7.3 20:53:42 10° WNW 21:17:05 74° SSW 21:26:46 46° SE visible
26 Sep 7.4 23:13:54 10° WNW 23:35:40 45° SW 23:37:01 45° SW visible
27 Sep 8.2 01:38:26 10° WNW 01:47:17 16° W 01:47:17 16° W visible
27 Sep 7.5 18:27:49 10° WSW 18:48:14 82° S 19:09:23 17° E visible
27 Sep 7.3 20:46:40 10° WNW 21:09:53 73° SSW 21:19:38 46° SE visible
27 Sep 7.5 23:06:48 10° WNW 23:28:19 44° SW 23:29:54 43° SW visible
28 Sep 8.3 01:31:45 10° WNW 01:40:10 15° W 01:40:10 15° W visible
28 Sep 7.5 18:20:51 10° W 18:41:04 82° S 19:02:19 17° E visible
28 Sep 7.3 20:39:37 10° WNW 21:02:39 72° SSW 21:12:35 45° SE visible
28 Sep 7.5 22:59:41 10° WNW 23:20:57 42° WSW 23:22:51 42° SW visible
29 Sep 8.3 01:25:11 10° WNW 01:33:07 14° W 01:33:07 14° W visible
29 Sep 7.5 18:13:53 10° W 18:33:54 82° S 18:55:18 17° E visible
29 Sep 7.3 20:32:34 10° WNW 20:55:24 70° SSW 21:05:34 44° SE visible
29 Sep 7.6 22:52:35 10° WNW 23:13:34 41° WSW 23:15:51 40° SW visible
30 Sep 8.4 01:18:45 10° WNW 01:26:08 13° W 01:26:08 13° W visible
30 Sep 7.5 18:06:53 10° W 18:26:43 82° S 18:48:21 16° E visible
30 Sep 7.4 20:25:30 10° WNW 20:48:07 69° SSW 20:58:38 43° SE visible
30 Sep 7.6 22:45:28 10° WNW 23:06:09 40° WSW 23:08:55 39° SW visible
01 Oct 8.4 01:12:32 10° WNW 01:19:12 12° W 01:19:12 12° W visible
01 Oct 7.5 17:59:54 10° W 18:19:32 82° S 18:41:27 16° E visible
01 Oct 7.4 20:18:25 10° WNW 20:40:50 68° SSW 20:51:44 41° SSE visible
01 Oct 7.7 22:38:21 10° WNW 22:58:43 38° WSW 23:02:02 37° SW visible
02 Oct 8.5 01:06:40 10° W 01:11:47 11° W 01:12:19 11° W visible
02 Oct 7.5 17:52:54 10° W 18:12:19 82° S 18:34:37 15° ESE visible
02 Oct 7.5 20:11:20 10° WNW 20:33:31 67° SSW 20:44:55 40° SSE visible
02 Oct 7.8 22:31:14 10° WNW 22:51:16 37° WSW 22:55:12 35° SW visible
